{"data":{"norad_id":63039,"epoch":"2026-09-21T18:26:34.143936Z","epoch_age_seconds":55953,"freshness":"FRESH","line1":"1 63039U 25034L   26264.76845074  .00013694  00000+0  41567-3 0  9994","line2":"2 63039  53.1593  64.0749 0000953 100.3921 259.7190 15.34401609 89151","mean_motion":15.34401609,"eccentricity":9.53e-5,"inclination_deg":53.1593,"raan_deg":64.0749,"arg_perigee_deg":100.3921,"mean_anomaly_deg":259.719,"bstar":0.00041567,"rev_number":8915,"period_min":93.847659670956,"perigee_km":462.04652630506,"apogee_km":463.35038954334,"semimajor_km":6840.8354579242,"source":"CELESTRAK","updated_at":"2026-09-22T09:00:49.745469Z"}}